Odate Noshiro current weather conditions

sailwx.info

Wind from 180 at 4 knots

Air temperature -2.0° C
Visibility: greater than 5.4 NM
Dewpoint -3.0° C
Present weather: Light snow showers.

Last reported at 2020-Jan-25 10:00 UTC.
Time now 2020-Jan-25 13:48 UTC

Location: N 40°12' E 140°22'.
View on Google Maps.

See reports from other nearby stations

  
Tides and Currents Weather Stations Pressure Air Temp Water Temp Dewpoint Dewpoint Depression Visibility Wind Speed Wind Dir Waves Ship Positions
date/time (UTC)wind fromknots sea level pressurealtimeterstation pressurevisibilityair tempwater tempwave heightnotes
2020-Jan-25 10:00 180 4 5.4-2.0 Light snow showers.
2020-Jan-25 09:00 200 6 5.4-2.0 Light snow showers.
2020-Jan-25 08:00 270 4 5.4-1.0 Light snow showers.
2020-Jan-25 07:00 260 8 5.4-1.0 Showers in the vicinity.
2020-Jan-25 06:00 280 8 5.4-1.0 Light snow showers.
2020-Jan-25 05:00 260 13 5.4-1.0
2020-Jan-25 04:00 270 8 5.4-1.0 Light snow showers.
2020-Jan-25 03:00 270 12 5.4-1.0 Light snow showers.
2020-Jan-25 02:00 280 13 5.4-1.0 Light snow showers.
2020-Jan-25 01:00 260 7 5.4-1.0 Light snow showers.
2020-Jan-25 00:00 290 6 5.4-2.0 Light snow showers.
2020-Jan-24 23:00 5.4-2.0 Light snow showers.
2020-Jan-24 10:00 260 7 5.4-2.0 Light snow showers.
2020-Jan-24 09:00 280 7 5.4-2.0
2020-Jan-24 08:00 280 8 5.4-1.0 Light snow showers.
2020-Jan-24 07:00 270 12 5.4-1.0
2020-Jan-24 06:00 260 14 5.4 1.0
2020-Jan-24 05:00 260 13 5.4 1.0
2020-Jan-24 04:00 250 11 4.3 1.0 Light rain showers.
2020-Jan-24 03:00 280 13 3.2 1.0 Light rain showers.
2020-Jan-24 02:15 240 8 3.2-0.0 Light rain showers.
2020-Jan-24 02:00 220 7 1.1-0.0 Light snow showers. Patches of fog. Mist.
2020-Jan-24 01:40 0.5-0.0 Light snow showers. Patches of fog. Mist.
2020-Jan-24 01:29 0.3-0.0 Snow showers. Fog.
2020-Jan-24 01:20 0.5-0.0 Light snow showers. Patches of fog. Mist.
2020-Jan-24 01:00 340 2 0.4-0.0 Fog. Light snow showers.
2020-Jan-24 00:37 0.6-1.0 Light snow showers. Patches of fog. Mist.
2020-Jan-24 00:17 0.4-1.0 Fog. Light snow showers.
2020-Jan-24 00:00 0.2-1.0 Fog.
2020-Jan-23 23:00 0.2-2.0 Fog.